Погода в Петрозаводске

Хотите узнать прогноз погоды в Петрозаводске? Тогда Вам сюда: Погода в Петрозаводске

Поиск расширенной информации на нашем сайте:

Полезная информация:

Новости сайта



02.01.2020
Опубликован Долгосрочный прогноз погоды по городам России и ближнего зарубежья на январь 2020 года.
Карты: Прогноз на январь и февраль 2020 года, Сравнение прогнозируемой аномалии приземной температуры воздуха на январь 2020 года по разным моделям.




Погода в Петрозаводске - сегодня

Время (UTC), дата Ветер
(°,м/с) 
Видим.   Явления Облачность Т
(°С)
Тd
(°С)
f(%) Тe
(°С)
Pmin
(гПа)
dP
(гПа)
Po
(мм)
O2
(г/м3)
Тmin Tmax R s Состояние
почвы
06 05.04.20 280 (З) 6-10{10}  20000 м    4/0 верхняя 
[Ci fib]
-0.9 -5.9 69 -5  1016.8  2.1  752  305  -3.1    0.0     
09 05.04.20 280 (З) 6{11}  23000 м    8/6 1000 м кучево-дожд., средняя 
[Cb calv|Ac trans]
+0.6 -6.4 59 -3  1018.8  2.1  754  304           
12 05.04.20 290 (З) 3{13}  17000 м  в посл. час ливневой снег  9/8 600 м кучево-дожд., средняя 
[Cb cap|Ac trans]
+0.2 -6.6 60 -2  1021.2  2.3  755  305           
15 05.04.20 280 (З) 5{10}  20000 м  {ливн. осадки}  8/4 600 м кучево-дожд., средняя 
[Cb cap|Ac trans]
+0.7 -9.1 48 -2  1022.8  1.6  757  305      0.5     
18 05.04.20 260 (З) 20000 м  {ливн. осадки}  4/0 средняя 
[Ac trans]
-2 -6.4 72 -4  1024.8  1.9  758  308    +1.9  0.5     
21 05.04.20 260 (З) 20000 м    3/0 средняя 
[Ac trans]
-3.1 -7 74 -5  1026.3  1.4  759  310           
00 06.04.20 250 (З) 20000 м    ясно 
-4.6 -10.5 63 -7  1027.8  1.4  760  313           
03 06.04.20 250 (З) 18000 м    3/0 средняя 
[Ac trans]
-6.8 -11.3 70 -8  1029.5  1.6  761  316  -6.9         
06 06.04.20 280 (З) 20000 м    ясно 
-2.7 -11.6 50 -5  1030.7  1.4  762  311  -6.9         
09 06.04.20 330 (СЗ) 22000 м    1/1 600 м 
[Cu hum]
+1.1 -14.1 31 1031.5  0.9  763  307           
12 06.04.20 030 (СВ) 24000 м    ясно 
+3 -16.8 22 +4  1032  0.6  764  306           
15 06.04.20 310 (СЗ) 21000 м    ясно 
+3.1 -18.4 19 +3  1031.9  -0.1  764  306           
18 06.04.20 200 (Ю) 20000 м    ясно 
-3.5 -12.1 51 -5  1032.2  764  313    +3.9       
21 06.04.20 210 (ЮЗ) 20000 м    8/0 средняя 
[Ac trans]
-2.8 -14 42 -4  1031.5  -0.7  763  312           
00 07.04.20 210 (ЮЗ) 20000 м    10/4 600 м средняя 
[Sc|Ac und]
-1.3 -14.1 37 -4  1029.9  -1.5  762  310           
03 07.04.20 210 (ЮЗ) 20000 м    10/8 540 м средняя 
[Sc|Ac und]
+0.3 -7.5 56 -2  1027.2  -2.5  760  307  -4.7         
06 07.04.20 230 (ЮЗ) 22000 м    8/0 верхняя 
[Ci fib]
+4.2 -2.6 61 +3  1024.1  -2.9  758  301  -4.7         
09 07.04.20 240 (ЮЗ) 5-11{11}  23000 м    10/0 верхняя 
[Ci fib]
+10.4 -1.6 43 +9  1020.6  -3.2  755  293           
12 07.04.20 220 (ЮЗ) 7-12{12}  22000 м    10/0 верхняя 
[Ci fib]
+12.8 -3.3 32 +12  1016.5  -3.9  752  290           
15 07.04.20 220 (ЮЗ) 4{12}  20000 м    10/0 средняя, верхняя 
[Ac trans|Ci fib]
+12.5 -3.9 32 +12  1013.5  -3  750  289           
18 07.04.20 230 (ЮЗ) 20000 м    10/0 средняя, верхняя 
[Ac trans|Ci fib]
+10.7 -4 35 +10  1010.7  -2.8  748  291    +13.2       
21 07.04.20 240 (ЮЗ) 20000 м    10/0 средняя 
[Ac und]
+7.8 -2.3 49 +7  1008.8  -2  747  293           
00 08.04.20 260 (З) 20000 м    10/0 средняя, верхняя 
[Ac trans|Ci fib]
+6 -1.4 59 +5  1009.6  0.7  747  295           
03 08.04.20 300 (СЗ) 20000 м    8/4 600 м средняя 
[Sc|Ac trans]
+4 -0.6 72 +3  1012.7  749  298  +3.6         
06 08.04.20 320 (СЗ) 22000 м    8/8 600 м 
[Cu hum]
+4.9 +0.2 72 +3  1015.6  2.9  752  297  +3.6         
Время (UTC), дата Ветер
(°,м/с) 
Видим.   Явления Облачность Т
(°С)
Тd
(°С)
f(%) Тe
(°С)
Pmin
(гПа)
dP
(гПа)
Po
(мм)
O2
(г/м3)
Тmin Tmax R s Состояние
почвы

Для получения пояснительной информации подведите курсор к названию столбца.

ПОГОДА в Петрозаводске - архив

Всё, что Вы хотите узнать о погоде в Петрозаводске - удобно и подробно!

Выберите нужную дату (начиная с 1 января 2019* года) и нажмите кнопку "Найти".
Будут отображены архивные сводки погоды по пункту Петрозаводск, начиная с указанной даты.


Отображать данные в формате CSV (для использования в таблицах Excel)


Внимание! Наш архив погоды предназначен исключительно для личного некоммерческого использования в познавательных целях. Если Вам необходимы официальные справки о состоянии погоды (для производственных, юридических, коммерческих и т.п. целей), обращайтесь в органы Росгидромета.

*Примечание: данная дата относится к архиву по метеостанциям СССР (Россия, СНГ, Балтия).
Архив по метеостанциям Зарубежной Европы и Азии (кроме Китая) хранится 10 дней, по другим регионам земного шара (Китай, Африка, Америка, Австралия, Океания) - 1 день.

Петрозаводск - район местоположения метеостанции


Название, широта, долгота, высота метеостанции:
Петрозаводск 61.8°ш. 34.3°д. 110 м над ур. моря [Российская Федерация]

Дополнительная информация

В oтличие oт бoльшинства пoгoдных сайтoв мы публикуем пoдрoбную метеoинфoрмацию в детальнoм прoфессиoнальнoм фoрмате.

Характеристики температуры и влажнoсти вoздуха измеряются на высoте 2 м в тени вдали oт зданий и деревьев.
Скoрoсть ветра измеряется на высoте 10 м (на урoвне рoста челoвека скoрoсть ветра ниже в 1.5-2 раза). Если метеoстанция нахoдится в гoрoде или в лесу, тo скoрoсть ветра занижена на 2-4 м/с пo сравнению с oткрытым местoм. Скoрoсть ветра над акватoриями крупных рек и oзёр, а также на вершинах хoлмoв на 2-5 м/с выше, чем в oбычных услoвиях.
Атмoсфернoе давление в разных тoчках местнoсти мoжет значительнo oтличаться oт давления на метеoстанции, в зависимoсти oт услoвий рельефа (при пoдъёме на 10 м давление пoнижается примернo на 1 мм рт.ст.).